Regional Weather Roundup
Issued by NWS

Home | Current Version | Previous Version | Text Only | Print | Product List | Glossary On
Versions: 1 2 3 4 5 6 7 8 9 10 11 12 13 14 15 16 17 18 19 20 21 22 23 24 25 26 27 28 29 30 31 32 33 34 35 36 37 38 39 40 41 42 43 44 45 46 47 48
000
ASPQ40 PGUM 251312
RWRPQ
WEATHER ROUNDUP FOR THE MARIANAS AND MICRONESIA
NATIONAL WEATHER SERVICE TIYAN GU
1100 PM CHST FRI JUL 25 2014

GUZ001>004-251400-
MARIANA ISLANDS-

CITY           SKY/WX    TMP DP  RH WIND       PRES   REMARKS
GUAM AIRPORT   MOCLDY    77  75  94 S6        29.82F
ANDERSEN AFB   CLEAR     77  75  94 SE8       29.81F
ROTA AIRPORT   NOT AVBL
TINIAN AP      NOT AVBL
SAIPAN AP      CLEAR     79  75  89 NE3       29.84R

$$

PMZ161-251400-
REPUBLIC OF PALAU-

CITY           SKY/WX    TMP DP  RH WIND       PRES   REMARKS
KOROR AP       LGT RAIN  81  77  89 SW15G25   29.76
KOROR WSO      HVY RAIN  77  75  94 W14G33    29.75R VSB 1/2

$$

PMZ171>174-251400-
FEDERATED STATES OF MICRONESIA-

CITY           SKY/WX    TMP DP  RH WIND       PRES   REMARKS
YAP AIRPORT    MOCLDY    82  77  83 S9G18     29.76R HX  91
CHUUK AP       CLOUDY    82  77  83 SW12      29.86F HX  91
POHNPEI AP     NOT AVBL
POHNPEI WSO    CLOUDY    77  77 100 W3        29.89F
KOSRAE AP      NOT AVBL

$$

PMZ181-251400-
REPUBLIC OF THE MARSHALL ISLANDS-

CITY           SKY/WX    TMP DP  RH WIND       PRES   REMARKS
KWAJALEIN AP   PTCLDY    82  75  78 S13       29.89R
MAJURO AP      NOT AVBL
MAJURO WSO     MOCLDY    81  75  83 CALM      29.87F

$$



USA.gov is the U.S. government's official web portal to all federal, state and local government web resources and services.